Weather History for KK22 - November, 2012

Change the Weather History Date:

Saturday, November 17, 2012

  Actual Average (KJKL) Record (KJKL)
Temperature  
Mean Temperature 42 °F 48 °F  
Max Temperature 57 °F 57 °F 71 °F (1993)
Min Temperature 28 °F 39 °F 20 °F (1997)
Degree Days  
Heating Degree Days 22 17  
Month to date heating degree days 244  
Since 1 July heating degree days 541  
Cooling Degree Days 0 0  
Month to date cooling degree days 0  
Year to date cooling degree days 1150  
Moisture  
Dew Point 28 °F    
Average Humidity 60    
Maximum Humidity 96    
Minimum Humidity 31    
Precipitation  
Precipitation 0.00 in 0.14 in 0.96 in (1993)
Month to date precipitation 2.14  
Year to date precipitation 42.34  
Snow  
Snow - 0.00 in - ()
Month to date snowfall 0.1  
Since 1 July snowfall 0.2  
Since 1 September snowfall 0.2  
Snow Depth -    
Sea Level Pressure  
Sea Level Pressure 30.45 in    
Wind  
Wind Speed 2 mph ()    
Max Wind Speed 9 mph    
Max Gust Speed -    
Visibility 10.0 miles    
Events      
T = Trace of Precipitation, MM = Missing Value Source: Averaged Metar Reports

Daily Weather History Graph

Daily Weather History Graph

Search for Another Location

Airport or City:

Trip Planner

Search our weather history database for the weather conditions in past years. The results will help you decide how hot, cold, wet, or windy it might be!

Date:

Astronomy

Nov. 17, 2012 Rise Set
Actual Time 7:13 AM EST 5:17 PM EST
Civil Twilight 6:45 AM EST 5:45 PM EST
Nautical Twilight 6:13 AM EST 6:17 PM EST
Astronomical Twilight 5:42 AM EST 6:48 PM EST
Moon 10:57 AM EST (11/17) 9:25 PM EST (11/17)
Length of Visible Light 11h 00m
Length of Day
10h 04m
Waxing Crescent, 20% of the Moon is Illuminated
Nov 17
Waxing Crescent
Nov 20
First Quarter
Nov 28
Full
Dec 6
Last Quarter
Dec 13
New

Hourly Weather History & Observations

Time (EST) Temp. Windchill Dew Point Humidity Pressure Visibility Wind Dir Wind Speed Gust Speed Precip Events Conditions
12:15 AM 36.9 °F - 27.7 °F 69% 30.44 in 10.0 mi Calm Calm - N/A   Clear
12:35 AM 36.3 °F - 27.5 °F 70% 30.43 in 10.0 mi Calm Calm - N/A   Clear
12:55 AM 35.6 °F - 28.2 °F 75% 30.43 in 10.0 mi Calm Calm - N/A   Clear
1:15 AM 37.0 °F - 28.4 °F 71% 30.42 in 10.0 mi Calm Calm - N/A   Clear
1:35 AM 36.1 °F - 28.0 °F 72% 30.42 in 10.0 mi Calm Calm - N/A   Clear
1:55 AM 34.3 °F - 28.0 °F 78% 30.42 in 10.0 mi Calm Calm - N/A   Clear
2:15 AM 34.0 °F - 27.7 °F 78% 30.42 in 10.0 mi Calm Calm - N/A   Clear
2:35 AM 35.2 °F - 27.5 °F 73% 30.43 in 10.0 mi Calm Calm - N/A   Clear
2:55 AM 35.8 °F - 28.0 °F 73% 30.43 in 10.0 mi Calm Calm - N/A   Clear
3:15 AM 35.4 °F - 27.5 °F 73% 30.43 in 10.0 mi Calm Calm - N/A   Clear
3:35 AM 32.7 °F 29.6 °F 27.3 °F 81% 30.43 in 10.0 mi North 3.5 mph - N/A   Clear
3:55 AM 32.0 °F - 27.9 °F 85% 30.43 in 10.0 mi Calm Calm - N/A   Clear
4:15 AM 32.4 °F - 28.8 °F 87% 30.43 in 10.0 mi Calm Calm - N/A   Clear
4:35 AM 30.6 °F - 27.3 °F 88% 30.44 in 10.0 mi Calm Calm - N/A   Clear
4:55 AM 30.6 °F 27.1 °F 27.5 °F 88% 30.44 in 10.0 mi ENE 3.5 mph - N/A   Clear
5:15 AM 30.6 °F - 27.7 °F 89% 30.44 in 10.0 mi Calm Calm - N/A   Clear
5:35 AM 32.2 °F - 28.0 °F 85% 30.45 in 10.0 mi Calm Calm - N/A   Clear
5:55 AM 30.6 °F - 27.5 °F 88% 30.46 in 10.0 mi Calm Calm - N/A   Clear
6:15 AM 29.8 °F - 27.9 °F 92% 30.46 in 10.0 mi Calm Calm - N/A   Clear
6:35 AM 29.3 °F - 27.5 °F 93% 30.46 in 10.0 mi Calm Calm - N/A   Clear
6:55 AM 28.8 °F 25.0 °F 27.9 °F 96% 30.47 in 10.0 mi NE 3.5 mph - N/A   Clear
7:15 AM 29.1 °F - 27.1 °F 92% 30.48 in 10.0 mi Calm Calm - N/A   Clear
7:35 AM 30.0 °F - 27.5 °F 90% 30.48 in 10.0 mi Calm Calm - N/A   Clear
7:55 AM 31.1 °F - 28.4 °F 90% 30.49 in 10.0 mi Calm Calm - N/A   Clear
8:15 AM 32.2 °F 28.9 °F 29.3 °F 89% 30.49 in 10.0 mi East 3.5 mph - N/A   Clear
8:35 AM 34.7 °F 30.6 °F 31.5 °F 88% 30.49 in 10.0 mi East 4.6 mph - N/A   Clear
8:55 AM 34.3 °F - 30.2 °F 85% 30.49 in 10.0 mi Calm Calm - N/A   Clear
9:15 AM 38.5 °F - 31.3 °F 75% 30.50 in 10.0 mi Calm Calm - N/A   Clear
9:35 AM 40.6 °F - 31.5 °F 70% 30.50 in 10.0 mi Calm Calm - N/A   Clear
9:55 AM 42.4 °F 40.7 °F 31.5 °F 65% 30.51 in 10.0 mi East 3.5 mph - N/A   Clear
10:15 AM 44.2 °F 42.7 °F 32.0 °F 62% 30.51 in 10.0 mi ENE 3.5 mph - N/A   Clear
10:35 AM 45.9 °F 44.6 °F 32.2 °F 59% 30.51 in 10.0 mi East 3.5 mph - N/A   Clear
10:55 AM 48.9 °F - 32.0 °F 52% 30.51 in 10.0 mi ENE 4.6 mph - N/A   Clear
11:15 AM 50.9 °F - 31.8 °F 48% 30.51 in 10.0 mi ESE 5.8 mph - N/A   Clear
11:35 AM 52.0 °F - 30.9 °F 45% 30.50 in 10.0 mi SE 3.5 mph - N/A   Clear
12:55 PM 55.0 °F - 28.2 °F 36% 30.47 in 10.0 mi ENE 4.6 mph - N/A   Clear
1:15 PM 56.1 °F - 28.9 °F 35% 30.46 in 10.0 mi Calm Calm - N/A   Clear
1:35 PM 56.3 °F - 27.9 °F 34% 30.45 in 10.0 mi ENE 5.8 mph - N/A   Clear
1:55 PM 56.8 °F - 28.4 °F 34% 30.44 in 10.0 mi NNE 6.9 mph - N/A   Clear
2:15 PM 57.4 °F - 28.4 °F 33% 30.43 in 10.0 mi NE 4.6 mph - N/A   Clear
2:35 PM 57.2 °F - 28.0 °F 33% 30.43 in 10.0 mi NNE 3.5 mph - N/A   Clear
2:55 PM 57.6 °F - 28.4 °F 33% 30.43 in 10.0 mi NNE 6.9 mph - N/A   Clear
3:15 PM 57.4 °F - 27.9 °F 32% 30.42 in 10.0 mi NNE 3.5 mph - N/A   Clear
3:35 PM 57.4 °F - 27.3 °F 32% 30.42 in 10.0 mi NE 5.8 mph - N/A   Clear
3:55 PM 57.4 °F - 26.8 °F 31% 30.43 in 10.0 mi ENE 5.8 mph - N/A   Clear
4:15 PM 56.5 °F - 26.4 °F 32% 30.43 in 10.0 mi ENE 6.9 mph - N/A   Clear
4:35 PM 55.4 °F - 26.4 °F 33% 30.43 in 10.0 mi NE 4.6 mph - N/A   Clear
4:55 PM 54.0 °F - 26.4 °F 35% 30.43 in 10.0 mi NNE 4.6 mph - N/A   Clear
5:15 PM 51.4 °F - 26.4 °F 38% 30.43 in 10.0 mi NE 5.8 mph - N/A   Clear
5:35 PM 51.3 °F - 25.7 °F 37% 30.43 in 10.0 mi NE 4.6 mph - N/A   Clear
5:55 PM 50.0 °F - 26.2 °F 40% 30.43 in 10.0 mi NE 5.8 mph - N/A   Clear
6:15 PM 49.3 °F - 26.6 °F 41% 30.44 in 10.0 mi NE 5.8 mph - N/A   Clear
6:35 PM 48.4 °F - 26.6 °F 43% 30.44 in 10.0 mi NE 6.9 mph - N/A   Clear
6:55 PM 48.7 °F - 26.8 °F 43% 30.44 in 10.0 mi NE 8.1 mph - N/A   Clear
7:15 PM 48.2 °F - 26.6 °F 43% 30.44 in 10.0 mi NE 9.2 mph - N/A   Clear
7:35 PM 46.9 °F - 26.4 °F 45% 30.44 in 10.0 mi NE 8.1 mph - N/A   Clear
7:55 PM 46.6 °F - 26.6 °F 46% 30.44 in 10.0 mi NE 6.9 mph - N/A   Clear
8:15 PM 45.1 °F 42.0 °F 26.6 °F 48% 30.44 in 10.0 mi NE 5.8 mph - N/A   Clear
8:35 PM 45.9 °F 42.3 °F 26.6 °F 47% 30.44 in 10.0 mi NE 6.9 mph - N/A   Clear
8:55 PM 47.1 °F - 26.6 °F 45% 30.44 in 10.0 mi East 6.9 mph - N/A   Clear
9:15 PM 46.9 °F - 27.0 °F 46% 30.44 in 10.0 mi ENE 5.8 mph - N/A   Clear
9:55 PM 42.8 °F 40.1 °F 27.1 °F 54% 30.44 in 10.0 mi ENE 4.6 mph - N/A   Clear
10:15 PM 43.0 °F 39.5 °F 27.3 °F 54% 30.43 in 10.0 mi ENE 5.8 mph - N/A   Clear
10:35 PM 44.1 °F 40.1 °F 27.3 °F 52% 30.43 in 10.0 mi ENE 6.9 mph - N/A   Clear
10:55 PM 42.6 °F 39.0 °F 27.5 °F 55% 30.43 in 10.0 mi ENE 5.8 mph - N/A   Clear
11:15 PM 42.6 °F 39.0 °F 27.5 °F 55% 30.43 in 10.0 mi East 5.8 mph - N/A   Clear
11:35 PM 42.8 °F 39.3 °F 27.5 °F 55% 30.42 in 10.0 mi East 5.8 mph - N/A   Clear
11:55 PM 42.6 °F 39.0 °F 27.5 °F 55% 30.43 in 10.0 mi East 5.8 mph - N/A   Clear